Weather History for Newberry, MI

Change the Weather History Date:

Saturday, March 23, 2013

  Actual Average Record
Temperature  
Mean Temperature 24 °F -  
Max Temperature 33 °F 38 °F 61 °F (1987)
Min Temperature 15 °F 18 °F -5 °F (1916)
Degree Days  
Heating Degree Days 41    
Moisture  
Dew Point 22 °F    
Average Humidity 82    
Maximum Humidity 100    
Minimum Humidity 60    
Precipitation  
Precipitation 0.00 in - - ()
Sea Level Pressure  
Sea Level Pressure 30.07 in    
Wind  
Wind Speed 6 mph (NW)    
Max Wind Speed 12 mph    
Max Gust Speed 17 mph    
Visibility 10 miles    
Events      
Averages and records for this station are not official NWS values.
T = Trace of Precipitation, MM = Missing Value Source: NWS Daily Summary

Daily Weather History Graph

Daily Weather History Graph

Search for Another Location

Airport:

Trip Planner

Search our weather history database for the weather conditions in past years. The results will help you decide how hot, cold, wet, or windy it might be!

Date:

Astronomy

Mar. 23, 2013 Rise Set
Actual Time 7:38 AM EDT 7:58 PM EDT
Civil Twilight 7:08 AM EDT 8:28 PM EDT
Nautical Twilight 6:33 AM EDT 9:04 PM EDT
Astronomical Twilight 5:56 AM EDT 9:41 PM EDT
Moon 4:14 PM EDT (3/23) 5:26 AM EDT (3/23)
Length of Visible Light 13h 20m
Length of Day
12h 20m
Waxing Gibbous, 85% of the Moon is Illuminated
Mar 23
Waxing Gibbous
Mar 27
Full
Apr 3
Last Quarter
Apr 10
New
Apr 18
First Quarter

Hourly Weather History & Observations

Time (EDT) Temp. Windchill Dew Point Humidity Pressure Visibility Wind Dir Wind Speed Gust Speed Precip Events Conditions
12:35 AM 21.2 °F 12.6 °F 17.6 °F 86% 30.03 in 10.0 mi West 6.9 mph - N/A   Clear
12:54 AM 21.2 °F 13.6 °F 19.4 °F 93% 30.03 in 10.0 mi WNW 5.8 mph - N/A   Clear
1:14 AM 21.2 °F 13.6 °F 19.4 °F 93% 30.03 in 10.0 mi WNW 5.8 mph - N/A   Scattered Clouds
1:35 AM 21.2 °F 12.6 °F 19.4 °F 93% 30.03 in 10.0 mi West 6.9 mph - N/A   Mostly Cloudy
1:54 AM 19.4 °F 11.5 °F 17.6 °F 93% 30.03 in 10.0 mi WNW 5.8 mph - N/A   Mostly Cloudy
2:15 AM 21.2 °F 13.6 °F 19.4 °F 93% 30.03 in 10.0 mi WNW 5.8 mph - N/A   Scattered Clouds
2:35 AM 17.6 °F 8.2 °F 15.8 °F 93% 30.03 in 10.0 mi West 6.9 mph - N/A   Scattered Clouds
2:54 AM 17.6 °F 9.3 °F 15.8 °F 93% 30.03 in 10.0 mi West 5.8 mph - N/A   Clear
3:15 AM 17.6 °F 8.2 °F 15.8 °F 93% 30.03 in 10.0 mi West 6.9 mph - N/A   Clear
3:35 AM 17.6 °F 8.2 °F 15.8 °F 93% 30.03 in 10.0 mi West 6.9 mph - N/A   Clear
3:54 AM 15.8 °F 6.1 °F 14.0 °F 93% 30.02 in 10.0 mi West 6.9 mph - N/A   Clear
4:15 AM 19.4 °F 12.8 °F 17.6 °F 93% 30.03 in 10.0 mi West 4.6 mph - N/A   Scattered Clouds
4:35 AM 21.2 °F 14.9 °F 19.4 °F 93% 30.03 in 10.0 mi WNW 4.6 mph - N/A   Scattered Clouds
4:54 AM 21.2 °F 16.4 °F 19.4 °F 93% 30.03 in 10.0 mi WNW 3.5 mph - N/A   Scattered Clouds
5:15 AM 17.6 °F 10.7 °F 15.8 °F 93% 30.03 in 10.0 mi WNW 4.6 mph - N/A   Mostly Cloudy
5:34 AM 19.4 °F 12.8 °F 19.4 °F 100% 30.03 in 10.0 mi NW 4.6 mph - N/A   Scattered Clouds
5:54 AM 23.0 °F 18.4 °F 21.2 °F 93% 30.04 in 10.0 mi NW 3.5 mph - N/A   Clear
6:14 AM 23.0 °F 18.4 °F 21.2 °F 93% 30.04 in 10.0 mi NW 3.5 mph - N/A   Clear
6:34 AM 17.6 °F 12.3 °F 15.8 °F 93% 30.04 in 10.0 mi NW 3.5 mph - N/A   Scattered Clouds
6:55 AM 17.6 °F 10.7 °F 15.8 °F 93% 30.05 in 10.0 mi WNW 4.6 mph - N/A   Mostly Cloudy
7:14 AM 23.0 °F 18.4 °F 21.2 °F 93% 30.05 in 10.0 mi NW 3.5 mph - N/A   Overcast
7:34 AM 24.8 °F 20.5 °F 21.2 °F 86% 30.06 in 10.0 mi NW 3.5 mph - N/A   Overcast
7:55 AM 24.8 °F - 21.2 °F 86% 30.07 in 10.0 mi Calm Calm - N/A   Overcast
8:14 AM 24.8 °F - 23.0 °F 93% 30.07 in 10.0 mi Calm Calm - N/A   Mostly Cloudy
8:35 AM 24.8 °F - 23.0 °F 93% 30.07 in 10.0 mi Calm Calm - N/A   Overcast
9:14 AM 26.6 °F - 24.8 °F 93% 30.08 in 10.0 mi Calm Calm - N/A   Overcast
9:35 AM 26.6 °F - 24.8 °F 93% 30.08 in 10.0 mi Calm Calm - N/A   Overcast
9:55 AM 28.4 °F 24.6 °F 24.8 °F 86% 30.08 in 10.0 mi NNE 3.5 mph - N/A   Scattered Clouds
10:14 AM 28.4 °F 23.3 °F 24.8 °F 86% 30.09 in 10.0 mi North 4.6 mph - N/A   Clear
10:35 AM 30.2 °F 24.3 °F 24.8 °F 80% 30.09 in 10.0 mi NNE 5.8 mph - N/A   Clear
10:54 AM 30.2 °F 24.3 °F 24.8 °F 80% 30.09 in 10.0 mi North 5.8 mph - N/A   Scattered Clouds
11:14 AM 33.8 °F 27.0 °F 24.8 °F 70% 30.08 in 10.0 mi NNE 8.1 mph - N/A   Mostly Cloudy
11:35 AM 33.8 °F 27.0 °F 23.0 °F 65% 30.09 in 10.0 mi NNW 8.1 mph - N/A   Overcast
11:54 AM 33.8 °F 27.0 °F 21.2 °F 60% 30.09 in 10.0 mi NNW 8.1 mph - N/A   Overcast
12:14 PM 33.8 °F 27.7 °F 23.0 °F 65% 30.08 in 10.0 mi NNE 6.9 mph - N/A   Overcast
12:35 PM 33.8 °F 25.3 °F 23.0 °F 65% 30.08 in 10.0 mi West 11.5 mph - N/A   Overcast
12:54 PM 33.8 °F 27.7 °F 23.0 °F 65% 30.09 in 10.0 mi NW 6.9 mph - N/A   Overcast
1:15 PM 33.8 °F 28.6 °F 23.0 °F 65% 30.08 in 10.0 mi West 5.8 mph - N/A   Overcast
1:35 PM 33.8 °F - 21.2 °F 60% 30.09 in 10.0 mi Calm Calm - N/A   Overcast
2:15 PM 33.8 °F 28.6 °F 23.0 °F 65% 30.09 in 10.0 mi North 5.8 mph - N/A   Overcast
2:35 PM 33.8 °F - 24.8 °F 70% 30.08 in 10.0 mi Calm Calm - N/A   Overcast
2:54 PM 33.8 °F 29.6 °F 23.0 °F 65% 30.08 in 10.0 mi North 4.6 mph - N/A   Overcast
3:15 PM 33.8 °F 27.7 °F 24.8 °F 70% 30.09 in 10.0 mi West 6.9 mph - N/A   Overcast
3:34 PM 33.8 °F 26.4 °F 24.8 °F 70% 30.09 in 10.0 mi NW 9.2 mph - N/A   Overcast
3:54 PM 33.8 °F 25.3 °F 24.8 °F 70% 30.09 in 10.0 mi NW 11.5 mph 16.1 mph N/A   Overcast
4:14 PM 33.8 °F 25.8 °F 24.8 °F 70% 30.09 in 10.0 mi NNW 10.4 mph - N/A   Overcast
4:35 PM 32.0 °F 27.5 °F 26.6 °F 80% 30.09 in 10.0 mi NNW 4.6 mph - N/A   Overcast
4:55 PM 33.8 °F 25.8 °F 26.6 °F 75% 30.09 in 10.0 mi WNW 10.4 mph - N/A   Overcast
5:14 PM 32.0 °F 24.8 °F 26.6 °F 80% 30.09 in 10.0 mi NW 8.1 mph - N/A   Overcast
5:35 PM 32.0 °F 25.6 °F 26.6 °F 80% 30.08 in 10.0 mi North 6.9 mph - N/A   Overcast
5:55 PM 30.2 °F 22.6 °F 26.6 °F 86% 30.08 in 10.0 mi NNW 8.1 mph - N/A   Overcast
6:14 PM 30.2 °F 22.6 °F 26.6 °F 86% 30.08 in 10.0 mi NNW 8.1 mph 17.3 mph N/A   Overcast
6:35 PM 30.2 °F 21.9 °F 26.6 °F 86% 30.09 in 10.0 mi NNW 9.2 mph 16.1 mph N/A   Overcast
6:54 PM 30.2 °F 24.3 °F 24.8 °F 80% 30.10 in 10.0 mi North 5.8 mph - N/A   Overcast
7:14 PM 30.2 °F 23.4 °F 24.8 °F 80% 30.10 in 10.0 mi NNW 6.9 mph - N/A   Overcast
7:35 PM 30.2 °F 21.9 °F 23.0 °F 75% 30.10 in 10.0 mi North 9.2 mph - N/A   Overcast
7:54 PM 28.4 °F 22.2 °F 23.0 °F 80% 30.10 in 10.0 mi NNW 5.8 mph - N/A   Overcast
8:15 PM 28.4 °F 22.2 °F 23.0 °F 80% 30.11 in 10.0 mi NW 5.8 mph - N/A   Overcast
8:35 PM 28.4 °F 21.2 °F 21.2 °F 74% 30.11 in 10.0 mi NW 6.9 mph - N/A   Overcast
8:54 PM 28.4 °F 23.3 °F 21.2 °F 74% 30.11 in 10.0 mi NNW 4.6 mph - N/A   Overcast
9:15 PM 28.4 °F 20.4 °F 21.2 °F 74% 30.11 in 10.0 mi NW 8.1 mph - N/A   Overcast
9:35 PM 26.6 °F 19.1 °F 21.2 °F 80% 30.11 in 10.0 mi NW 6.9 mph - N/A   Overcast
9:54 PM 26.6 °F 20.0 °F 21.2 °F 80% 30.12 in 10.0 mi NNW 5.8 mph - N/A   Overcast
10:15 PM 26.6 °F 18.2 °F 21.2 °F 80% 30.12 in 10.0 mi NW 8.1 mph - N/A   Overcast
10:34 PM 26.6 °F 19.1 °F 21.2 °F 80% 30.12 in 10.0 mi North 6.9 mph - N/A   Overcast
10:54 PM 26.6 °F - 21.2 °F 80% 30.12 in 10.0 mi Calm Calm - N/A   Overcast
11:15 PM 26.6 °F - 21.2 °F 80% 30.11 in 10.0 mi Calm Calm - N/A   Overcast
11:34 PM 26.6 °F - 21.2 °F 80% 30.11 in 10.0 mi Calm Calm - N/A   Overcast
11:55 PM 26.6 °F 22.6 °F 21.2 °F 80% 30.11 in 10.0 mi West 3.5 mph - N/A   Overcast